TimeAST,TemperatureF,Dew PointF,Humidity,Sea Level PressureIn,VisibilityMPH,Wind Direction,Wind SpeedMPH,Gust SpeedMPH,PrecipitationIn,Events,Conditions,WindDirDegrees,DateUTC
12:00 AM,38.5,31.6,76,-9999,-9999.0,West,11.5,-,N/A,,Unknown,280,2012-12-15 04:00:00
1:00 AM,37.2,31.1,79,-9999,-9999.0,WNW,13.8,-,N/A,,Unknown,290,2012-12-15 05:00:00
2:00 AM,36.9,30.2,77,-9999,-9999.0,WNW,15.0,-,N/A,,Unknown,290,2012-12-15 06:00:00
3:00 AM,36.1,30.0,78,-9999,-9999.0,WNW,12.7,-,N/A,,Unknown,290,2012-12-15 07:00:00
4:00 AM,35.2,29.8,81,-9999,-9999.0,West,12.7,-,N/A,,Unknown,280,2012-12-15 08:00:00
5:00 AM,35.1,28.2,76,-9999,-9999.0,WNW,20.7,-,N/A,,Unknown,290,2012-12-15 09:00:00
6:00 AM,34.3,27.3,76,-9999,-9999.0,WNW,21.9,28.8,N/A,,Unknown,300,2012-12-15 10:00:00
7:00 AM,31.1,19.9,63,-9999,-9999.0,NNW,34.5,-,N/A,,Unknown,330,2012-12-15 11:00:00
8:00 AM,28.4,18.5,66,-9999,-9999.0,NW,32.2,40.3,N/A,,Unknown,320,2012-12-15 12:00:00
9:00 AM,27.7,20.5,74,-9999,-9999.0,NNW,31.1,-,N/A,,Unknown,330,2012-12-15 13:00:00
10:00 AM,27.5,20.5,75,-9999,-9999.0,NNW,26.5,39.1,N/A,,Unknown,330,2012-12-15 14:00:00
11:00 AM,26.6,18.5,71,-9999,-9999.0,NW,27.6,-,N/A,,Unknown,320,2012-12-15 15:00:00
12:00 PM,26.4,19.6,75,-9999,-9999.0,NW,25.3,-,N/A,,Unknown,320,2012-12-15 16:00:00
1:00 PM,25.9,18.7,74,-9999,-9999.0,NNW,24.2,29.9,N/A,,Unknown,330,2012-12-15 17:00:00
2:00 PM,25.9,16.7,68,-9999,-9999.0,NNW,25.3,-,N/A,,Unknown,330,2012-12-15 18:00:00
3:00 PM,25.3,18.7,76,-9999,-9999.0,NNW,24.2,-,N/A,,Unknown,340,2012-12-15 19:00:00
4:00 PM,24.4,16.7,72,-9999,-9999.0,NNW,25.3,-,N/A,,Unknown,330,2012-12-15 20:00:00
5:00 PM,23.9,15.3,70,-9999,-9999.0,NNW,26.5,33.4,N/A,,Unknown,330,2012-12-15 21:00:00
6:00 PM,22.6,13.3,67,-9999,-9999.0,NNW,24.2,33.4,N/A,,Unknown,340,2012-12-15 22:00:00
7:00 PM,21.7,10.8,63,-9999,-9999.0,North,25.3,32.2,N/A,,Unknown,350,2012-12-15 23:00:00
8:00 PM,19.8,8.4,61,-9999,-9999.0,NNW,26.5,34.5,N/A,,Unknown,340,2012-12-16 00:00:00
9:00 PM,19.2,8.4,63,-9999,-9999.0,North,28.8,34.5,N/A,,Unknown,350,2012-12-16 01:00:00
10:00 PM,18.0,8.2,66,-9999,-9999.0,NNW,27.6,34.5,N/A,,Unknown,330,2012-12-16 02:00:00
11:00 PM,17.6,9.3,70,-9999,-9999.0,NW,23.0,28.8,N/A,,Unknown,320,2012-12-16 03:00:00